This is the latest recevied weather packets stored in our database for station/object KE5YIM-13. If no packets are shown the sender has not sent any weather packets the latest 10 day(s).
| Time | Temp. | Humidity | Pressure | Rain* | Wind** | Luminosity | Snow |
|---|---|---|---|---|---|---|---|
| 1777900965 | 15.56° C | 41% | 1014.1 hPa | 0 mm | - | 489 W/m² | - |
| 1777900662 | 15.56° C | 42% | 1014.3 hPa | 0 mm | - | 434 W/m² | - |
| 1777900359 | 15.56° C | 42% | 1014.2 hPa | 0 mm | - | 447 W/m² | - |
| 1777900056 | 15.56° C | 42% | 1014.4 hPa | 0 mm | - | 430 W/m² | - |
| 1777899752 | 15° C | 47% | 1014.4 hPa | 0 mm | - | 413 W/m² | - |
| 1777899449 | 15° C | 47% | 1014.6 hPa | 0 mm | - | 396 W/m² | - |
| 1777899147 | 14.44° C | 47% | 1014.4 hPa | 0 mm | - | 380 W/m² | - |
| 1777898845 | 14.44° C | 47% | 1014.4 hPa | 0 mm | - | 364 W/m² | - |
| 1777898542 | 13.89° C | 51% | 1014.5 hPa | 0 mm | - | 348 W/m² | - |
| 1777898239 | 13.89° C | 50% | 1014.6 hPa | 0 mm | - | 330 W/m² | - |
| 1777897936 | 13.33° C | 50% | 1014.6 hPa | 0 mm | - | 314 W/m² | - |
| 1777897632 | 13.33° C | 53% | 1014.7 hPa | 0 mm | - | 295 W/m² | - |
| 1777897328 | 12.78° C | 54% | 1014.7 hPa | 0 mm | - | 280 W/m² | - |
| 1777897024 | 12.22° C | 56% | 1014.6 hPa | 0 mm | - | 264 W/m² | - |
| 1777896721 | 12.22° C | 57% | 1014.6 hPa | 0 mm | - | 250 W/m² | - |
| 1777896418 | 11.67° C | 56% | 1014.7 hPa | 0 mm | - | 233 W/m² | - |
| 1777896116 | 11.67° C | 58% | 1014.6 hPa | 0 mm | - | 219 W/m² | - |
| 1777895814 | 11.11° C | 60% | 1014.6 hPa | 0 mm | - | 203 W/m² | - |
| 1777895511 | 10.56° C | 61% | 1014.8 hPa | 0 mm | - | 189 W/m² | - |
| 1777895209 | 10.56° C | 61% | 1014.7 hPa | 0 mm | - | 153 W/m² | - |
| 1777894906 | 10° C | 63% | 1014.7 hPa | 0 mm | - | 117 W/m² | - |
| 1777894603 | 9.44° C | 64% | 1014.8 hPa | 0 mm | - | 112 W/m² | - |
| 1777894300 | 8.33° C | 66% | 1014.8 hPa | 0 mm | - | 58 W/m² | - |
| 1777893997 | 6.67° C | 78% | 1014.8 hPa | 0 mm | - | 53 W/m² | - |
| 1777893693 | 5° C | 97% | 1014.7 hPa | 0 mm | - | 52 W/m² | - |
* Rain latest hour (hover to see other rain measurements)
** Current wind speed in m/s (hover to see current wind gust speed)